| time (UTC) | temp F | wind direction | speed MPH | gust MPH | rain 1hr in | rain 24hr in | rain mn in | humidity % | barometer mb |
| 20260505230100 | 82 | 167 | 3.0 | 9.0 | 0.00 | 0.00 | 0.00 | 75 | 1007.7 |
| 20260505224604 | 82 | 168 | 2.0 | 7.0 | 0.00 | 0.00 | 0.00 | 75 | 1007.7 |
| 20260505223059 | 82 | 167 | 3.0 | 8.0 | 0.00 | 0.00 | 0.00 | 75 | 1007.8 |
| 20260505221604 | 83 | 166 | 3.0 | 8.0 | 0.00 | 0.00 | 0.00 | 75 | 1007.9 |
| 20260505214601 | 83 | 166 | 2.0 | 9.0 | 0.00 | 0.00 | 0.00 | 73 | 1008.1 |
| 20260505213059 | 83 | 167 | 3.0 | 10.0 | 0.00 | 0.00 | 0.00 | 73 | 1008.2 |
| 20260505211557 | 83 | 166 | 3.0 | 7.0 | 0.00 | 0.00 | 0.00 | 74 | 1008.5 |
| 20260505210058 | 83 | 167 | 1.0 | 5.0 | 0.00 | 0.00 | 0.00 | 74 | 1008.8 |
| 20260505204600 | 83 | 167 | 3.0 | 9.0 | 0.00 | 0.00 | 0.00 | 73 | 1009.1 |
| 20260505203126 | 84 | 166 | 4.0 | 9.0 | 0.00 | 0.00 | 0.00 | 71 | 1009.1 |
| 20260505201604 | 84 | 0 | 2.0 | 6.0 | 0.00 | 0.00 | 0.00 | 73 | 1009.3 |
| 20260505200100 | 83 | 167 | 2.0 | 11.0 | 0.00 | 0.00 | 0.00 | 72 | 1009.5 |
| 20260505194604 | 84 | 167 | 1.0 | 7.0 | 0.00 | 0.00 | 0.00 | 74 | 1009.6 |
| 20260505193103 | 82 | 169 | 3.0 | 9.0 | 0.00 | 0.00 | 0.00 | 74 | 1009.7 |
| 20260505191611 | 83 | 166 | 2.0 | 7.0 | 0.00 | 0.00 | 0.00 | 74 | 1009.9 |
| 20260505190058 | 82 | 166 | 3.0 | 8.0 | 0.00 | 0.00 | 0.00 | 75 | 1009.9 |
| 20260505184559 | 82 | 0 | 2.0 | 7.0 | 0.00 | 0.00 | 0.00 | 76 | 1010.0 |
| 20260505183101 | 82 | 166 | 2.0 | 6.0 | 0.00 | 0.00 | 0.00 | 75 | 1010.1 |
| 20260505181557 | 82 | 166 | 2.0 | 6.0 | 0.00 | 0.00 | 0.00 | 76 | 1010.2 |
| 20260505180103 | 81 | 166 | 1.0 | 7.0 | 0.00 | 0.00 | 0.00 | 77 | 1010.3 |
| 20260505174605 | 80 | 166 | 2.0 | 6.0 | 0.00 | 0.00 | 0.00 | 78 | 1010.4 |
| 20260505173100 | 80 | 167 | 1.0 | 6.0 | 0.00 | 0.00 | 0.00 | 79 | 1010.7 |
| 20260505171556 | 80 | 167 | 2.0 | 6.0 | 0.00 | 0.00 | 0.00 | 79 | 1010.5 |
| 20260505170111 | 80 | 167 | 3.0 | 9.0 | 0.00 | 0.00 | 0.00 | 78 | 1010.5 |
| 20260505164558 | 80 | 166 | 2.0 | 7.0 | 0.00 | 0.00 | 0.00 | 78 | 1010.7 |
| 20260505163102 | 79 | 166 | 2.0 | 7.0 | 0.00 | 0.00 | 0.00 | 81 | 1010.6 |
| 20260505161616 | 78 | 166 | 3.0 | 8.0 | 0.00 | 0.00 | 0.00 | 82 | 1010.6 |
| 20260505153106 | 77 | 166 | 3.0 | 7.0 | 0.00 | 0.00 | 0.00 | 84 | 1010.3 |
| 20260505151606 | 77 | 166 | 3.0 | 7.0 | 0.00 | 0.00 | 0.00 | 84 | 1010.4 |
| 20260505140105 | 75 | 166 | 1.0 | 4.0 | 0.00 | 0.00 | 0.00 | 88 | 1010.2 |
| 20260505130110 | 73 | 166 | 0.0 | 3.0 | 0.00 | 0.00 | 0.00 | 91 | 1010.0 |
| 20260505124611 | 72 | 166 | 0.0 | 2.0 | 0.00 | 0.00 | 0.00 | 91 | 1010.1 |
| 20260505123104 | 71 | 0 | 0.0 | 2.0 | 0.00 | 0.00 | 0.00 | 92 | 1009.8 |
| 20260505121631 | 71 | 166 | 0.0 | 2.0 | 0.00 | 0.00 | 0.00 | 92 | 1009.9 |
| 20260505120112 | 71 | 0 | 0.0 | 2.0 | 0.00 | 0.00 | 0.00 | 92 | 1009.5 |
| 20260505114600 | 71 | 0 | 0.0 | 2.0 | 0.00 | 0.00 | 0.00 | 91 | 1009.5 |
| 20260505113108 | 71 | 0 | 0.0 | 2.0 | 0.00 | 0.00 | 0.00 | 91 | 1009.7 |
| 20260505111607 | 70 | 0 | 0.0 | 2.0 | 0.00 | 0.00 | 0.00 | 91 | 1009.5 |
| 20260505110104 | 70 | 0 | 0.0 | 0.0 | 0.00 | 0.00 | 0.00 | 91 | 1009.4 |
| 20260505101559 | 70 | 0 | 0.0 | 2.0 | 0.00 | 0.00 | 0.00 | 90 | 1009.5 |
| 20260505094557 | 70 | 0 | 0.0 | 1.0 | 0.00 | 0.00 | 0.00 | 90 | 1009.7 |
| 20260505093059 | 70 | 0 | 0.0 | 2.0 | 0.00 | 0.00 | 0.00 | 89 | 1009.7 |
| 20260505091557 | 70 | 166 | 0.0 | 3.0 | 0.00 | 0.00 | 0.00 | 89 | 1009.9 |
| 20260505090107 | 70 | 0 | 0.0 | 4.0 | 0.00 | 0.00 | 0.00 | 88 | 1010.0 |
| 20260505084600 | 70 | 166 | 0.0 | 3.0 | 0.00 | 0.00 | 0.00 | 88 | 1010.0 |
| 20260505083103 | 70 | 0 | 0.0 | 0.0 | 0.00 | 0.00 | 0.00 | 88 | 1010.3 |
| 20260505081559 | 70 | 0 | 0.0 | 2.0 | 0.00 | 0.00 | 0.00 | 88 | 1010.2 |
| 20260505080058 | 70 | 0 | 0.0 | 4.0 | 0.00 | 0.00 | 0.00 | 88 | 1010.4 |
| 20260505074558 | 70 | 166 | 0.0 | 3.0 | 0.00 | 0.00 | 0.00 | 87 | 1010.4 |
| 20260505073100 | 70 | 166 | 2.0 | 6.0 | 0.00 | 0.00 | 0.00 | 87 | 1010.4 |
| 20260505071600 | 70 | 0 | 1.0 | 3.0 | 0.00 | 0.00 | 0.00 | 86 | 1010.6 |
| 20260505064559 | 70 | 0 | 1.0 | 4.0 | 0.00 | 0.00 | 0.00 | 85 | 1011.0 |
| 20260505063059 | 70 | 166 | 1.0 | 4.0 | 0.00 | 0.00 | 0.00 | 85 | 1011.2 |
| 20260505061612 | 70 | 0 | 0.0 | 3.0 | 0.00 | 0.00 | 0.00 | 85 | 1011.3 |
| 20260505054600 | 70 | 0 | 0.0 | 4.0 | 0.00 | 0.00 | 0.00 | 84 | 1011.3 |
| 20260505053107 | 71 | 166 | 1.0 | 4.0 | 0.00 | 0.00 | 0.00 | 83 | 1011.5 |
| 20260505051558 | 71 | 166 | 1.0 | 3.0 | 0.00 | 0.00 | 0.00 | 83 | 1011.9 |
| 20260505041559 | 72 | 166 | 1.0 | 6.0 | 0.00 | 0.00 | 0.00 | 80 | 1011.9 |
| 20260505040104 | 72 | 166 | 1.0 | 4.0 | 0.00 | 0.00 | 0.00 | 80 | 1012.1 |
| 20260505034558 | 72 | 0 | 0.0 | 4.0 | 0.00 | 0.00 | 0.00 | 79 | 1012.1 |
| 20260505033114 | 72 | 0 | 0.0 | 3.0 | 0.00 | 0.00 | 0.00 | 79 | 1012.3 |
| 20260505031559 | 72 | 0 | 1.0 | 5.0 | 0.00 | 0.00 | 0.00 | 78 | 1012.3 |
| 20260505030100 | 72 | 0 | 1.0 | 4.0 | 0.00 | 0.00 | 0.00 | 78 | 1012.2 |
| 20260505024604 | 73 | 167 | 1.0 | 5.0 | 0.00 | 0.00 | 0.00 | 77 | 1012.2 |
| 20260505023107 | 73 | 167 | 3.0 | 5.0 | 0.00 | 0.00 | 0.00 | 76 | 1012.1 |
| 20260505021557 | 73 | 167 | 2.0 | 6.0 | 0.00 | 0.00 | 0.00 | 75 | 1012.0 |
| 20260505020056 | 74 | 167 | 3.0 | 8.0 | 0.00 | 0.00 | 0.00 | 75 | 1011.8 |
| 20260505014558 | 74 | 167 | 2.0 | 9.0 | 0.00 | 0.00 | 0.00 | 74 | 1011.9 |
| 20260505013055 | 74 | 0 | 2.0 | 7.0 | 0.00 | 0.00 | 0.00 | 73 | 1011.5 |
| 20260505011601 | 75 | 166 | 2.0 | 6.0 | 0.00 | 0.00 | 0.00 | 73 | 1011.5 |
| 20260505004601 | 76 | 166 | 2.0 | 7.0 | 0.00 | 0.00 | 0.00 | 70 | 1011.5 |
| 20260505003102 | 76 | 167 | 2.0 | 6.0 | 0.00 | 0.00 | 0.00 | 71 | 1011.5 |
| 20260505001557 | 76 | 167 | 2.0 | 7.0 | 0.00 | 0.00 | 0.00 | 70 | 1011.3 |
| 20260504234617 | 78 | 166 | 2.0 | 7.0 | 0.00 | 0.00 | 0.00 | 68 | 1011.5 |
| 20260504233058 | 78 | 167 | 2.0 | 6.0 | 0.00 | 0.00 | 0.00 | 67 | 1011.8 |
| 20260504231605 | 78 | 167 | 2.0 | 7.0 | 0.00 | 0.00 | 0.00 | 67 | 1011.9 |